Time,TemperatureF,DewpointF,PressureIn,WindDirection,WindDirectionDegrees,WindSpeedMPH,WindSpeedGustMPH,Humidity,HourlyPrecipIn,Conditions,Clouds,dailyrainin,SoftwareType,DateUTC
2013-03-19 00:01:00,55.2,-5.1,29.80,SSW,204,0.0,0.0,8,0.00,,---,0.00,VWS V14.01,2013-03-19 07:01:00,
2013-03-19 00:06:00,55.6,-7.6,29.80,SSW,210,0.0,0.0,7,0.00,,---,0.00,VWS V14.01,2013-03-19 07:06:00,
2013-03-19 00:11:00,55.4,-7.7,29.80,SSW,210,0.0,0.0,7,0.00,,---,0.00,VWS V14.01,2013-03-19 07:11:00,
2013-03-19 00:17:00,55.0,-5.2,29.80,SSW,209,0.0,0.0,8,0.00,,---,0.00,VWS V14.01,2013-03-19 07:17:00,
2013-03-19 00:22:00,55.0,-5.2,29.80,SSW,211,0.0,0.0,8,0.00,,---,0.00,VWS V14.01,2013-03-19 07:22:00,
2013-03-19 00:27:00,55.8,-7.4,29.80,SSW,212,0.0,0.0,7,0.00,,---,0.00,VWS V14.01,2013-03-19 07:27:00,
2013-03-19 00:32:00,55.9,-7.3,29.80,SSW,213,0.0,0.0,7,0.00,,---,0.00,VWS V14.01,2013-03-19 07:32:00,
2013-03-19 00:38:00,55.6,-7.6,29.77,WSW,257,0.0,0.0,7,0.00,,---,0.00,VWS V14.01,2013-03-19 07:38:00,
2013-03-19 00:43:00,55.2,-5.1,29.77,WSW,257,0.0,0.0,8,0.00,,---,0.00,VWS V14.01,2013-03-19 07:43:00,
2013-03-19 00:48:00,55.2,-5.1,29.77,WSW,257,0.0,0.0,8,0.00,,---,0.00,VWS V14.01,2013-03-19 07:48:00,
2013-03-19 00:53:00,55.6,-7.6,29.77,WSW,258,0.0,0.0,7,0.00,,---,0.00,VWS V14.01,2013-03-19 07:53:00,
2013-03-19 00:58:00,55.8,-7.4,29.77,WSW,257,0.0,0.0,7,0.00,,---,0.00,VWS V14.01,2013-03-19 07:58:00,
2013-03-19 01:03:00,55.6,-7.6,29.77,WSW,257,0.0,0.0,7,0.00,,---,0.00,VWS V14.01,2013-03-19 08:03:00,
2013-03-19 01:08:00,54.7,-5.5,29.77,WSW,250,0.0,0.0,8,0.00,,---,0.00,VWS V14.01,2013-03-19 08:08:00,
2013-03-19 01:14:00,54.7,-5.5,29.80,WSW,250,0.0,0.0,8,0.00,,---,0.00,VWS V14.01,2013-03-19 08:14:00,
2013-03-19 01:19:00,54.7,-5.5,29.80,WSW,250,0.0,0.0,8,0.00,,---,0.00,VWS V14.01,2013-03-19 08:19:00,
2013-03-19 01:24:00,54.0,-6.0,29.80,WSW,250,0.0,0.0,8,0.00,,---,0.00,VWS V14.01,2013-03-19 08:24:00,
2013-03-19 01:29:00,53.1,-6.7,29.80,WSW,248,0.0,0.0,8,0.00,,---,0.00,VWS V14.01,2013-03-19 08:29:00,
2013-03-19 01:34:00,53.2,-6.6,29.80,WSW,248,0.0,0.0,8,0.00,,---,0.00,VWS V14.01,2013-03-19 08:34:00,
2013-03-19 01:39:00,53.4,-6.4,29.80,WSW,248,0.0,0.0,8,0.00,,---,0.00,VWS V14.01,2013-03-19 08:39:00,
2013-03-19 01:44:00,53.6,-6.3,29.80,WSW,248,0.0,0.0,8,0.00,,---,0.00,VWS V14.01,2013-03-19 08:44:00,
2013-03-19 01:49:00,53.6,-6.3,29.80,WSW,248,0.0,0.0,8,0.00,,---,0.00,VWS V14.01,2013-03-19 08:49:00,
2013-03-19 01:55:00,53.6,-6.3,29.80,WSW,248,0.0,0.0,8,0.00,,---,0.00,VWS V14.01,2013-03-19 08:55:00,
2013-03-19 02:00:00,53.6,-6.3,29.80,WSW,248,0.0,0.0,8,0.00,,---,0.00,VWS V14.01,2013-03-19 09:00:00,
2013-03-19 02:05:00,53.6,-6.3,29.80,WSW,248,0.0,0.0,8,0.00,,---,0.00,VWS V14.01,2013-03-19 09:05:00,
2013-03-19 02:10:00,53.4,-6.4,29.80,WSW,248,0.0,0.0,8,0.00,,---,0.00,VWS V14.01,2013-03-19 09:10:00,
2013-03-19 02:15:00,53.2,-6.6,29.80,WSW,248,0.0,0.0,8,0.00,,---,0.00,VWS V14.01,2013-03-19 09:15:00,
2013-03-19 02:20:00,53.1,-6.7,29.80,WSW,248,0.0,0.0,8,0.00,,---,0.00,VWS V14.01,2013-03-19 09:20:00,
2013-03-19 02:26:00,52.7,-7.0,29.80,WSW,248,0.0,0.0,8,0.00,,---,0.00,VWS V14.01,2013-03-19 09:26:00,
2013-03-19 02:31:00,52.9,-6.8,29.80,WNW,283,0.0,0.0,8,0.00,,---,0.00,VWS V14.01,2013-03-19 09:31:00,
2013-03-19 02:36:00,53.1,-6.7,29.80,WNW,283,0.0,0.0,8,0.00,,---,0.00,VWS V14.01,2013-03-19 09:36:00,
2013-03-19 02:42:00,53.2,-6.6,29.77,WNW,283,0.0,0.0,8,0.00,,---,0.00,VWS V14.01,2013-03-19 09:42:00,
2013-03-19 02:47:00,53.2,-6.6,29.77,WNW,284,0.0,0.0,8,0.00,,---,0.00,VWS V14.01,2013-03-19 09:47:00,
2013-03-19 02:52:00,53.2,-6.6,29.77,WNW,284,0.0,0.0,8,0.00,,---,0.00,VWS V14.01,2013-03-19 09:52:00,
2013-03-19 02:57:00,53.1,-6.7,29.77,WNW,283,0.0,0.0,8,0.00,,---,0.00,VWS V14.01,2013-03-19 09:57:00,
2013-03-19 03:02:00,52.9,-6.8,29.77,WNW,284,0.0,0.0,8,0.00,,---,0.00,VWS V14.01,2013-03-19 10:02:00,
2013-03-19 03:07:00,52.7,-7.0,29.77,WNW,283,0.0,0.0,8,0.00,,---,0.00,VWS V14.01,2013-03-19 10:07:00,
2013-03-19 03:13:00,52.5,-7.1,29.77,WNW,283,0.0,0.0,8,0.00,,---,0.00,VWS V14.01,2013-03-19 10:13:00,
2013-03-19 03:18:00,52.5,-7.1,29.77,WNW,284,0.0,0.0,8,0.00,,---,0.00,VWS V14.01,2013-03-19 10:18:00,
2013-03-19 03:23:00,52.5,-7.1,29.77,WNW,284,0.0,0.0,8,0.00,,---,0.00,VWS V14.01,2013-03-19 10:23:00,
2013-03-19 03:28:00,52.5,-7.1,29.77,WNW,283,0.0,0.0,8,0.00,,---,0.00,VWS V14.01,2013-03-19 10:28:00,
2013-03-19 03:33:00,52.2,-7.4,29.77,SW,214,0.0,0.0,8,0.00,,---,0.00,VWS V14.01,2013-03-19 10:33:00,
2013-03-19 03:39:00,52.7,-7.0,29.77,SW,216,0.0,0.0,8,0.00,,---,0.00,VWS V14.01,2013-03-19 10:39:00,
2013-03-19 03:44:00,52.9,-6.8,29.77,SW,216,0.0,0.0,8,0.00,,---,0.00,VWS V14.01,2013-03-19 10:44:00,
2013-03-19 03:49:00,52.7,-7.0,29.77,SW,216,0.0,0.0,8,0.00,,---,0.00,VWS V14.01,2013-03-19 10:49:00,
2013-03-19 03:54:00,53.1,-6.7,29.77,SW,214,0.0,0.0,8,0.00,,---,0.00,VWS V14.01,2013-03-19 10:54:00,
2013-03-19 03:59:00,53.6,-6.3,29.77,SW,214,0.0,0.0,8,0.00,,---,0.00,VWS V14.01,2013-03-19 10:59:00,
2013-03-19 04:04:00,53.6,-6.3,29.77,SW,214,0.0,0.0,8,0.00,,---,0.00,VWS V14.01,2013-03-19 11:04:00,
2013-03-19 04:09:00,53.2,-6.6,29.77,SW,214,0.0,0.0,8,0.00,,---,0.00,VWS V14.01,2013-03-19 11:09:00,
2013-03-19 04:15:00,52.9,-6.8,29.74,SW,214,0.0,0.0,8,0.00,,---,0.00,VWS V14.01,2013-03-19 11:15:00,
2013-03-19 04:20:00,52.7,-7.0,29.74,SSW,201,0.0,0.0,8,0.00,,---,0.00,VWS V14.01,2013-03-19 11:20:00,
2013-03-19 04:25:00,52.7,-7.0,29.74,SSW,201,0.0,0.0,8,0.00,,---,0.00,VWS V14.01,2013-03-19 11:25:00,
2013-03-19 04:30:00,52.5,-7.1,29.74,SSW,200,0.0,0.0,8,0.00,,---,0.00,VWS V14.01,2013-03-19 11:30:00,
2013-03-19 04:35:00,52.2,-7.4,29.74,SSW,200,0.0,0.0,8,0.00,,---,0.00,VWS V14.01,2013-03-19 11:35:00,
2013-03-19 04:40:00,51.8,-7.7,29.77,SSW,201,0.0,0.0,8,0.00,,---,0.00,VWS V14.01,2013-03-19 11:40:00,
2013-03-19 04:45:00,51.6,-5.4,29.77,SSW,201,0.0,0.0,9,0.00,,---,0.00,VWS V14.01,2013-03-19 11:45:00,
2013-03-19 04:50:00,51.6,-5.4,29.77,SSW,201,0.0,0.0,9,0.00,,---,0.00,VWS V14.01,2013-03-19 11:50:00,
2013-03-19 04:55:00,51.6,-5.4,29.77,SSW,201,0.0,0.0,9,0.00,,---,0.00,VWS V14.01,2013-03-19 11:55:00,
2013-03-19 05:00:00,52.0,-7.5,29.77,SSW,201,0.0,0.0,8,0.00,,---,0.00,VWS V14.01,2013-03-19 12:00:00,
2013-03-19 05:05:00,52.2,-7.4,29.77,SSW,202,0.0,0.0,8,0.00,,---,0.00,VWS V14.01,2013-03-19 12:05:00,
2013-03-19 05:11:00,52.3,-7.2,29.77,SSW,202,0.0,0.0,8,0.00,,---,0.00,VWS V14.01,2013-03-19 12:11:00,
2013-03-19 05:16:00,52.2,-7.4,29.77,SW,222,0.0,0.0,8,0.00,,---,0.00,VWS V14.01,2013-03-19 12:16:00,
2013-03-19 05:21:00,52.2,-7.4,29.77,SW,222,0.0,0.0,8,0.00,,---,0.00,VWS V14.01,2013-03-19 12:21:00,
2013-03-19 05:27:00,52.2,-7.4,29.77,SW,222,0.0,0.0,8,0.00,,---,0.00,VWS V14.01,2013-03-19 12:27:00,
2013-03-19 05:32:00,52.2,-7.4,29.77,SW,222,0.0,0.0,8,0.00,,---,0.00,VWS V14.01,2013-03-19 12:32:00,
2013-03-19 05:37:00,52.0,-7.5,29.77,SW,222,0.0,0.0,8,0.00,,---,0.00,VWS V14.01,2013-03-19 12:37:00,
2013-03-19 05:42:00,52.0,-7.5,29.77,SW,222,0.0,0.0,8,0.00,,---,0.00,VWS V14.01,2013-03-19 12:42:00,
2013-03-19 05:47:00,51.8,-7.7,29.77,SW,222,0.0,0.0,8,0.00,,---,0.00,VWS V14.01,2013-03-19 12:47:00,
2013-03-19 05:52:00,51.6,-5.4,29.77,SW,222,0.0,0.0,9,0.00,,---,0.00,VWS V14.01,2013-03-19 12:52:00,
2013-03-19 05:57:00,51.6,-5.4,29.77,SW,222,0.0,0.0,9,0.00,,---,0.00,VWS V14.01,2013-03-19 12:57:00,
2013-03-19 06:03:00,51.6,-5.4,29.77,SSW,211,0.0,0.0,9,0.00,,---,0.00,VWS V14.01,2013-03-19 13:03:00,
2013-03-19 06:08:00,51.8,-7.7,29.77,SSW,211,0.0,0.0,8,0.00,,---,0.00,VWS V14.01,2013-03-19 13:08:00,
2013-03-19 06:13:00,52.0,-7.5,29.77,SSW,211,0.0,0.0,8,0.00,,---,0.00,VWS V14.01,2013-03-19 13:13:00,
2013-03-19 06:18:00,52.0,-7.5,29.77,SSW,211,0.0,0.0,8,0.00,,---,0.00,VWS V14.01,2013-03-19 13:18:00,
2013-03-19 06:23:00,51.8,-7.7,29.80,SSW,211,0.0,0.0,8,0.00,,---,0.00,VWS V14.01,2013-03-19 13:23:00,
2013-03-19 06:28:00,51.6,-5.4,29.80,SSW,211,0.0,0.0,9,0.00,,---,0.00,VWS V14.01,2013-03-19 13:28:00,
2013-03-19 06:33:00,51.4,-5.5,29.80,SSW,211,0.0,0.0,9,0.00,,---,0.00,VWS V14.01,2013-03-19 13:33:00,
2013-03-19 06:39:00,51.4,-5.5,29.80,SSW,211,0.0,0.0,9,0.00,,---,0.00,VWS V14.01,2013-03-19 13:39:00,
2013-03-19 06:44:00,51.6,-5.4,29.80,SSW,211,0.0,0.0,9,0.00,,---,0.00,VWS V14.01,2013-03-19 13:44:00,
2013-03-19 06:49:00,51.8,-7.7,29.80,SSW,211,0.0,0.0,8,0.00,,---,0.00,VWS V14.01,2013-03-19 13:49:00,
2013-03-19 06:54:00,52.0,-7.5,29.80,SSW,211,0.0,0.0,8,0.00,,---,0.00,VWS V14.01,2013-03-19 13:54:00,
2013-03-19 06:59:00,52.0,-7.5,29.80,SSW,211,0.0,0.0,8,0.00,,---,0.00,VWS V14.01,2013-03-19 13:59:00,
2013-03-19 07:04:00,52.0,-7.5,29.80,SSW,211,0.0,0.0,8,0.00,,---,0.00,VWS V14.01,2013-03-19 14:04:00,
2013-03-19 07:09:00,52.2,-7.4,29.80,SSW,211,0.0,0.0,8,0.00,,---,0.00,VWS V14.01,2013-03-19 14:09:00,
2013-03-19 07:15:00,52.2,-7.4,29.80,SSW,211,0.0,0.0,8,0.00,,---,0.00,VWS V14.01,2013-03-19 14:15:00,
2013-03-19 07:20:00,52.2,-7.4,29.80,SSW,211,0.0,0.0,8,0.00,,---,0.00,VWS V14.01,2013-03-19 14:20:00,
2013-03-19 07:25:00,52.3,-7.2,29.80,SSW,211,0.0,0.0,8,0.00,,---,0.00,VWS V14.01,2013-03-19 14:25:00,
2013-03-19 07:30:00,52.3,-7.2,29.80,SSW,211,0.0,0.0,8,0.00,,---,0.00,VWS V14.01,2013-03-19 14:30:00,
2013-03-19 07:35:00,52.5,-7.1,29.80,SSW,211,0.0,0.0,8,0.00,,---,0.00,VWS V14.01,2013-03-19 14:35:00,
2013-03-19 07:40:00,52.7,-7.0,29.80,SSW,211,0.0,0.0,8,0.00,,---,0.00,VWS V14.01,2013-03-19 14:40:00,
2013-03-19 07:46:00,52.9,-6.8,29.80,SSW,211,0.0,0.0,8,0.00,,---,0.00,VWS V14.01,2013-03-19 14:46:00,
2013-03-19 07:51:00,52.9,-6.8,29.80,SSW,211,0.0,0.0,8,0.00,,---,0.00,VWS V14.01,2013-03-19 14:51:00,
2013-03-19 07:56:00,53.1,-6.7,29.83,SSW,211,0.0,0.0,8,0.00,,---,0.00,VWS V14.01,2013-03-19 14:56:00,
2013-03-19 08:01:00,53.4,-6.4,29.83,SSW,211,0.0,0.0,8,0.00,,---,0.00,VWS V14.01,2013-03-19 15:01:00,
2013-03-19 08:06:00,53.8,-6.2,29.83,SSW,211,0.0,0.0,8,0.00,,---,0.00,VWS V14.01,2013-03-19 15:06:00,
2013-03-19 08:12:00,54.1,-5.9,29.83,SSW,211,0.0,0.0,8,0.00,,---,0.00,VWS V14.01,2013-03-19 15:12:00,
2013-03-19 08:17:00,54.5,-5.6,29.83,SSW,211,0.0,0.0,8,0.00,,---,0.00,VWS V14.01,2013-03-19 15:17:00,
2013-03-19 08:22:00,54.9,-5.3,29.83,SSW,211,0.0,0.0,8,0.00,,---,0.00,VWS V14.01,2013-03-19 15:22:00,
2013-03-19 08:27:00,55.4,-7.7,29.83,SE,126,0.0,0.0,7,0.00,,---,0.00,VWS V14.01,2013-03-19 15:27:00,
2013-03-19 08:32:00,55.9,-7.3,29.83,SSE,147,0.0,0.0,7,0.00,,---,0.00,VWS V14.01,2013-03-19 15:32:00,
2013-03-19 08:37:00,56.7,-6.8,29.83,SSE,147,0.0,0.0,7,0.00,,---,0.00,VWS V14.01,2013-03-19 15:37:00,
2013-03-19 08:42:00,57.4,-6.2,29.83,SSE,147,0.0,0.0,7,0.00,,---,0.00,VWS V14.01,2013-03-19 15:42:00,
2013-03-19 08:48:00,58.5,-5.4,29.83,SSE,147,0.0,0.0,7,0.00,,---,0.00,VWS V14.01,2013-03-19 15:48:00,
2013-03-19 08:53:00,59.7,-4.5,29.83,SSW,197,0.0,0.0,7,0.00,,---,0.00,VWS V14.01,2013-03-19 15:53:00,
2013-03-19 08:58:00,60.3,-4.1,29.83,SSW,197,0.0,0.0,7,0.00,,---,0.00,VWS V14.01,2013-03-19 15:58:00,
2013-03-19 09:03:00,60.8,-6.9,29.83,WNW,292,0.0,0.0,6,0.00,,---,0.00,VWS V14.01,2013-03-19 16:03:00,
2013-03-19 09:08:00,61.2,-6.6,29.83,West,273,0.0,0.0,6,0.00,,---,0.00,VWS V14.01,2013-03-19 16:08:00,
2013-03-19 09:13:00,61.5,-6.3,29.83,West,273,0.0,0.0,6,0.00,,---,0.00,VWS V14.01,2013-03-19 16:13:00,
2013-03-19 09:19:00,61.9,-6.1,29.83,West,273,0.0,0.0,6,0.00,,---,0.00,VWS V14.01,2013-03-19 16:19:00,
2013-03-19 09:24:00,62.4,-5.7,29.83,North,357,0.0,0.0,6,0.00,,---,0.00,VWS V14.01,2013-03-19 16:24:00,
2013-03-19 09:29:00,62.4,-5.7,29.83,North,357,0.0,0.0,6,0.00,,---,0.00,VWS V14.01,2013-03-19 16:29:00,
2013-03-19 09:34:00,62.8,-5.4,29.83,ENE,76,3.1,3.1,6,0.00,,---,0.00,VWS V14.01,2013-03-19 16:34:00,
2013-03-19 09:39:00,63.5,-4.9,29.83,North,357,0.0,0.0,6,0.00,,---,0.00,VWS V14.01,2013-03-19 16:39:00,
2013-03-19 09:44:00,63.9,-4.7,29.83,North,357,0.0,0.0,6,0.00,,---,0.00,VWS V14.01,2013-03-19 16:44:00,
2013-03-19 09:49:00,64.4,-8.0,29.83,NNE,15,3.1,3.1,5,0.00,,---,0.00,VWS V14.01,2013-03-19 16:49:00,
2013-03-19 09:55:00,64.8,-7.8,29.83,NNE,15,0.0,3.1,5,0.00,,---,0.00,VWS V14.01,2013-03-19 16:55:00,
2013-03-19 10:00:00,64.6,-7.9,29.83,North,9,2.7,2.7,5,0.00,,---,0.00,VWS V14.01,2013-03-19 17:00:00,
2013-03-19 10:05:00,64.4,-8.0,29.83,North,9,2.7,2.7,5,0.00,,---,0.00,VWS V14.01,2013-03-19 17:05:00,
2013-03-19 10:10:00,64.4,-8.0,29.83,ENE,73,0.0,0.0,5,0.00,,---,0.00,VWS V14.01,2013-03-19 17:10:00,
2013-03-19 10:15:00,64.4,-8.0,29.83,NNE,33,0.0,0.0,5,0.00,,---,0.00,VWS V14.01,2013-03-19 17:15:00,
2013-03-19 10:20:00,64.6,-7.9,29.83,NNE,33,0.0,0.0,5,0.00,,---,0.00,VWS V14.01,2013-03-19 17:20:00,
2013-03-19 10:25:00,65.5,-7.2,29.83,NNE,33,0.0,0.0,5,0.00,,---,0.00,VWS V14.01,2013-03-19 17:25:00,
2013-03-19 10:30:00,65.7,-7.1,29.83,SE,134,0.0,0.0,5,0.00,,---,0.00,VWS V14.01,2013-03-19 17:30:00,
2013-03-19 10:35:00,66.4,-6.6,29.83,SE,134,0.0,0.0,5,0.00,,---,0.00,VWS V14.01,2013-03-19 17:35:00,
2013-03-19 10:41:00,66.7,-6.3,29.83,NNE,19,4.9,4.9,5,0.00,,---,0.00,VWS V14.01,2013-03-19 17:41:00,
2013-03-19 10:47:00,67.3,-6.0,29.83,NNE,19,4.9,4.9,5,0.00,,---,0.00,VWS V14.01,2013-03-19 17:47:00,
2013-03-19 10:52:00,67.3,-6.0,29.83,NNE,19,4.9,4.9,5,0.00,,---,0.00,VWS V14.01,2013-03-19 17:52:00,
2013-03-19 10:57:00,67.8,-5.6,29.83,East,91,3.6,3.6,5,0.00,,---,0.00,VWS V14.01,2013-03-19 17:57:00,
2013-03-19 11:02:00,68.2,-5.3,29.83,SSE,153,2.7,2.7,5,0.00,,---,0.00,VWS V14.01,2013-03-19 18:02:00,
2013-03-19 11:07:00,68.5,-5.1,29.83,North,353,0.0,0.0,5,0.00,,---,0.00,VWS V14.01,2013-03-19 18:07:00,
2013-03-19 11:12:00,68.7,-4.9,29.83,ESE,105,0.0,0.0,5,0.00,,---,0.00,VWS V14.01,2013-03-19 18:12:00,
2013-03-19 11:17:00,68.5,-5.1,29.83,ENE,76,0.0,0.0,5,0.00,,---,0.00,VWS V14.01,2013-03-19 18:17:00,
2013-03-19 11:22:00,69.1,-4.7,29.83,East,94,0.0,0.0,5,0.00,,---,0.00,VWS V14.01,2013-03-19 18:22:00,
2013-03-19 11:28:00,69.1,-4.7,29.83,South,171,2.2,2.2,5,0.00,,---,0.00,VWS V14.01,2013-03-19 18:28:00,
2013-03-19 11:33:00,69.6,-4.3,29.83,NNE,21,4.5,4.5,5,0.00,,---,0.00,VWS V14.01,2013-03-19 18:33:00,
2013-03-19 11:38:00,70.3,-8.4,29.83,NNE,32,3.6,3.6,4,0.00,,---,0.00,VWS V14.01,2013-03-19 18:38:00,
2013-03-19 11:43:00,70.0,-8.6,29.83,NNE,32,3.6,3.6,4,0.00,,---,0.00,VWS V14.01,2013-03-19 18:43:00,
2013-03-19 11:49:00,70.2,-8.5,29.83,ENE,78,5.4,5.4,4,0.00,,---,0.00,VWS V14.01,2013-03-19 18:49:00,
2013-03-19 11:54:00,69.8,-8.8,29.83,ENE,78,5.4,5.4,4,0.00,,---,0.00,VWS V14.01,2013-03-19 18:54:00,
2013-03-19 11:59:00,70.2,-8.5,29.83,ENE,78,5.4,5.4,4,0.00,,---,0.00,VWS V14.01,2013-03-19 18:59:00,
2013-03-19 12:04:00,70.5,-8.3,29.83,ENE,59,0.0,0.0,4,0.00,,---,0.00,VWS V14.01,2013-03-19 19:04:00,
2013-03-19 12:09:00,70.9,-8.0,29.83,NE,55,5.8,5.8,4,0.00,,---,0.00,VWS V14.01,2013-03-19 19:09:00,
2013-03-19 12:14:00,71.4,-7.6,29.83,North,357,0.0,0.0,4,0.00,,---,0.00,VWS V14.01,2013-03-19 19:14:00,
2013-03-19 12:20:00,71.6,-7.5,29.83,East,85,0.0,0.0,4,0.00,,---,0.00,VWS V14.01,2013-03-19 19:20:00,
2013-03-19 12:25:00,72.1,-7.1,29.80,East,85,0.0,0.0,4,0.00,,---,0.00,VWS V14.01,2013-03-19 19:25:00,
2013-03-19 12:30:00,72.0,-7.3,29.80,SSE,158,5.4,5.4,4,0.00,,---,0.00,VWS V14.01,2013-03-19 19:30:00,
2013-03-19 12:35:00,72.3,-7.0,29.80,SSE,158,5.4,5.4,4,0.00,,---,0.00,VWS V14.01,2013-03-19 19:35:00,
2013-03-19 12:40:00,72.7,-6.8,29.80,ENE,77,0.0,0.0,4,0.00,,---,0.00,VWS V14.01,2013-03-19 19:40:00,
2013-03-19 12:45:00,72.5,-6.9,29.80,ENE,77,0.0,0.0,4,0.00,,---,0.00,VWS V14.01,2013-03-19 19:45:00,
2013-03-19 12:51:00,72.3,-7.0,29.80,WNW,301,2.7,2.7,4,0.00,,---,0.00,VWS V14.01,2013-03-19 19:51:00,
2013-03-19 12:56:00,72.9,-6.6,29.80,NW,307,0.0,0.0,4,0.00,,---,0.00,VWS V14.01,2013-03-19 19:56:00,
2013-03-19 13:02:00,73.0,-6.5,29.80,NW,307,0.0,0.0,4,0.00,,---,0.00,VWS V14.01,2013-03-19 20:02:00,
2013-03-19 13:07:00,73.4,-12.1,29.80,SE,139,0.0,0.0,3,0.00,,---,0.00,VWS V14.01,2013-03-19 20:07:00,
2013-03-19 13:12:00,73.8,-11.9,29.80,North,357,4.5,4.5,3,0.00,,---,0.00,VWS V14.01,2013-03-19 20:12:00,
2013-03-19 13:18:00,73.6,-12.0,29.80,ESE,108,5.4,5.4,3,0.00,,---,0.00,VWS V14.01,2013-03-19 20:18:00,
2013-03-19 13:23:00,74.1,-11.6,29.80,NNE,28,5.8,5.8,3,0.00,,---,0.00,VWS V14.01,2013-03-19 20:23:00,
2013-03-19 13:28:00,73.9,-11.7,29.80,ESE,122,5.4,5.4,3,0.00,,---,0.00,VWS V14.01,2013-03-19 20:28:00,
2013-03-19 13:33:00,74.5,-11.4,29.80,South,179,3.1,3.1,3,0.00,,---,0.00,VWS V14.01,2013-03-19 20:33:00,
2013-03-19 13:38:00,75.0,-11.0,29.80,East,81,3.1,3.1,3,0.00,,---,0.00,VWS V14.01,2013-03-19 20:38:00,
2013-03-19 13:43:00,74.7,-11.2,29.80,NNE,22,3.6,3.6,3,0.00,,---,0.00,VWS V14.01,2013-03-19 20:43:00,
2013-03-19 13:48:00,74.5,-11.4,29.80,ENE,59,0.0,0.0,3,0.00,,---,0.00,VWS V14.01,2013-03-19 20:48:00,
2013-03-19 13:54:00,74.3,-11.5,29.80,ENE,57,0.0,0.0,3,0.00,,---,0.00,VWS V14.01,2013-03-19 20:54:00,
2013-03-19 13:59:00,74.5,-11.4,29.80,ENE,71,4.9,4.9,3,0.00,,---,0.00,VWS V14.01,2013-03-19 20:59:00,
2013-03-19 14:04:00,74.7,-11.2,29.80,East,83,2.7,5.4,3,0.00,,---,0.00,VWS V14.01,2013-03-19 21:04:00,
2013-03-19 14:09:00,74.5,-11.4,29.80,ESE,114,5.4,5.4,3,0.00,,---,0.00,VWS V14.01,2013-03-19 21:09:00,
2013-03-19 14:14:00,74.7,-11.2,29.77,East,101,5.4,5.4,3,0.00,,---,0.00,VWS V14.01,2013-03-19 21:14:00,
2013-03-19 14:20:00,75.2,-10.9,29.77,ENE,67,5.4,5.4,3,0.00,,---,0.00,VWS V14.01,2013-03-19 21:20:00,
2013-03-19 14:25:00,75.2,-10.9,29.77,North,2,4.0,5.8,3,0.00,,---,0.00,VWS V14.01,2013-03-19 21:25:00,
2013-03-19 14:30:00,75.2,-10.9,29.77,NNW,342,5.8,5.8,3,0.00,,---,0.00,VWS V14.01,2013-03-19 21:30:00,
2013-03-19 14:35:00,75.0,-11.0,29.77,SW,216,0.0,0.0,3,0.00,,---,0.00,VWS V14.01,2013-03-19 21:35:00,
2013-03-19 14:40:00,75.4,-10.8,29.77,NE,47,5.4,5.4,3,0.00,,---,0.00,VWS V14.01,2013-03-19 21:40:00,
2013-03-19 14:45:00,75.9,-10.4,29.77,ESE,121,0.0,0.0,3,0.00,,---,0.00,VWS V14.01,2013-03-19 21:45:00,
2013-03-19 14:50:00,75.6,-10.6,29.77,East,80,2.7,3.1,3,0.00,,---,0.00,VWS V14.01,2013-03-19 21:50:00,
2013-03-19 14:55:00,75.2,-10.9,29.77,WSW,237,0.0,3.1,3,0.00,,---,0.00,VWS V14.01,2013-03-19 21:55:00,
2013-03-19 15:01:00,75.0,-11.0,29.77,SE,144,0.0,0.0,3,0.00,,---,0.00,VWS V14.01,2013-03-19 22:01:00,
2013-03-19 15:06:00,75.0,-11.0,29.77,SE,138,0.0,0.0,3,0.00,,---,0.00,VWS V14.01,2013-03-19 22:06:00,
2013-03-19 15:11:00,75.0,-11.0,29.77,South,186,2.7,2.7,3,0.00,,---,0.00,VWS V14.01,2013-03-19 22:11:00,
2013-03-19 15:16:00,75.4,-10.8,29.77,West,270,7.6,7.6,3,0.00,,---,0.00,VWS V14.01,2013-03-19 22:16:00,
2013-03-19 15:22:00,75.0,-11.0,29.77,WSW,251,0.0,0.0,3,0.00,,---,0.00,VWS V14.01,2013-03-19 22:22:00,
2013-03-19 15:27:00,74.5,-11.4,29.77,NW,316,0.0,0.0,3,0.00,,---,0.00,VWS V14.01,2013-03-19 22:27:00,
2013-03-19 15:32:00,73.8,-11.9,29.77,North,353,0.0,0.0,3,0.00,,---,0.00,VWS V14.01,2013-03-19 22:32:00,
2013-03-19 15:37:00,73.2,-6.4,29.77,NNW,339,0.0,0.0,4,0.00,,---,0.00,VWS V14.01,2013-03-19 22:37:00,
2013-03-19 15:42:00,72.9,-6.6,29.77,NNW,339,0.0,0.0,4,0.00,,---,0.00,VWS V14.01,2013-03-19 22:42:00,
2013-03-19 15:47:00,72.5,-6.9,29.77,NNW,339,0.0,0.0,4,0.00,,---,0.00,VWS V14.01,2013-03-19 22:47:00,
2013-03-19 15:52:00,72.3,-7.0,29.77,NNW,344,0.0,0.0,4,0.00,,---,0.00,VWS V14.01,2013-03-19 22:52:00,
2013-03-19 15:57:00,72.5,-6.9,29.77,SW,231,0.0,0.0,4,0.00,,---,0.00,VWS V14.01,2013-03-19 22:57:00,
2013-03-19 16:02:00,72.7,-6.8,29.77,SSE,148,0.0,0.0,4,0.00,,---,0.00,VWS V14.01,2013-03-19 23:02:00,
2013-03-19 16:07:00,73.4,-12.1,29.77,ESE,114,4.0,4.0,3,0.00,,---,0.00,VWS V14.01,2013-03-19 23:07:00,
2013-03-19 16:13:00,74.1,-11.6,29.77,ESE,123,4.0,5.8,3,0.00,,---,0.00,VWS V14.01,2013-03-19 23:13:00,
2013-03-19 16:18:00,74.5,-11.4,29.77,SSW,197,0.0,0.0,3,0.00,,---,0.00,VWS V14.01,2013-03-19 23:18:00,
2013-03-19 16:23:00,74.8,-11.1,29.77,SE,145,2.7,2.7,3,0.00,,---,0.00,VWS V14.01,2013-03-19 23:23:00,
2013-03-19 16:28:00,74.7,-11.2,29.77,SW,217,2.7,2.7,3,0.00,,---,0.00,VWS V14.01,2013-03-19 23:28:00,
2013-03-19 16:33:00,74.7,-11.2,29.77,SE,137,4.0,4.0,3,0.00,,---,0.00,VWS V14.01,2013-03-19 23:33:00,
2013-03-19 16:39:00,75.0,-11.0,29.77,SE,132,0.0,2.7,3,0.00,,---,0.00,VWS V14.01,2013-03-19 23:39:00,
2013-03-19 16:44:00,75.2,-10.9,29.77,South,190,2.7,3.6,3,0.00,,---,0.00,VWS V14.01,2013-03-19 23:44:00,
2013-03-19 16:49:00,75.2,-10.9,29.77,SW,215,0.0,0.0,3,0.00,,---,0.00,VWS V14.01,2013-03-19 23:49:00,
2013-03-19 16:54:00,75.0,-11.0,29.77,ESE,105,0.0,0.0,3,0.00,,---,0.00,VWS V14.01,2013-03-19 23:54:00,
2013-03-19 16:59:00,74.8,-11.1,29.77,SE,128,3.6,5.8,3,0.00,,---,0.00,VWS V14.01,2013-03-19 23:59:00,
2013-03-19 17:04:00,74.8,-11.1,29.77,ESE,117,5.8,5.8,3,0.00,,---,0.00,VWS V14.01,2013-03-20 00:04:00,
2013-03-19 17:09:00,74.3,-11.5,29.77,SE,134,5.4,5.4,3,0.00,,---,0.00,VWS V14.01,2013-03-20 00:09:00,
2013-03-19 17:14:00,73.9,-11.7,29.77,SSE,155,4.0,4.0,3,0.00,,---,0.00,VWS V14.01,2013-03-20 00:14:00,
2013-03-19 17:19:00,73.4,-12.1,29.77,SSE,161,8.1,8.1,3,0.00,,---,0.00,VWS V14.01,2013-03-20 00:19:00,
2013-03-19 17:25:00,72.9,-6.6,29.77,SE,146,7.6,8.1,4,0.00,,---,0.00,VWS V14.01,2013-03-20 00:25:00,
2013-03-19 17:30:00,72.1,-7.1,29.77,SE,126,6.3,8.1,4,0.00,,---,0.00,VWS V14.01,2013-03-20 00:30:00,
2013-03-19 17:35:00,72.0,-7.3,29.77,SSE,147,5.4,5.4,4,0.00,,---,0.00,VWS V14.01,2013-03-20 00:35:00,
2013-03-19 17:40:00,72.0,-7.3,29.77,SSE,151,4.0,5.4,4,0.00,,---,0.00,VWS V14.01,2013-03-20 00:40:00,
2013-03-19 17:45:00,71.6,-7.5,29.77,South,175,3.6,3.6,4,0.00,,---,0.00,VWS V14.01,2013-03-20 00:45:00,
2013-03-19 17:51:00,71.6,-7.5,29.77,SSE,166,5.8,7.6,4,0.00,,---,0.00,VWS V14.01,2013-03-20 00:51:00,
2013-03-19 17:56:00,71.2,-7.8,29.77,SSE,164,8.3,8.3,4,0.00,,---,0.00,VWS V14.01,2013-03-20 00:56:00,
2013-03-19 18:01:00,71.1,-7.9,29.77,SSE,156,0.0,2.7,4,0.00,,---,0.00,VWS V14.01,2013-03-20 01:01:00,
2013-03-19 18:06:00,70.2,-8.5,29.77,SSE,151,3.6,4.0,4,0.00,,---,0.00,VWS V14.01,2013-03-20 01:06:00,
2013-03-19 18:12:00,69.8,-8.8,29.77,SSE,163,6.3,6.3,4,0.00,,---,0.00,VWS V14.01,2013-03-20 01:12:00,
2013-03-19 18:17:00,69.1,-4.7,29.77,SSE,153,6.3,6.3,5,0.00,,---,0.00,VWS V14.01,2013-03-20 01:17:00,
2013-03-19 18:22:00,68.9,-4.8,29.77,SSE,166,3.6,4.0,5,0.00,,---,0.00,VWS V14.01,2013-03-20 01:22:00,
2013-03-19 18:28:00,68.5,-5.1,29.77,SE,142,3.1,3.6,5,0.00,,---,0.00,VWS V14.01,2013-03-20 01:28:00,
2013-03-19 18:33:00,68.5,-5.1,29.77,SSE,164,5.4,5.8,5,0.00,,---,0.00,VWS V14.01,2013-03-20 01:33:00,
2013-03-19 18:38:00,67.8,-5.6,29.77,SSE,155,4.0,8.3,5,0.00,,---,0.00,VWS V14.01,2013-03-20 01:38:00,
2013-03-19 18:43:00,67.6,-5.7,29.77,SSE,164,11.0,11.0,5,0.00,,---,0.00,VWS V14.01,2013-03-20 01:43:00,
2013-03-19 18:48:00,67.6,-5.7,29.77,SSE,153,8.7,10.5,5,0.00,,---,0.00,VWS V14.01,2013-03-20 01:48:00,
2013-03-19 18:54:00,67.5,-5.8,29.77,SSE,165,5.8,8.1,5,0.00,,---,0.00,VWS V14.01,2013-03-20 01:54:00,
2013-03-19 18:59:00,66.9,-6.2,29.77,South,180,6.3,7.6,5,0.00,,---,0.00,VWS V14.01,2013-03-20 01:59:00,
2013-03-19 19:04:00,66.9,-6.2,29.80,South,170,8.7,8.7,5,0.00,,---,0.00,VWS V14.01,2013-03-20 02:04:00,
2013-03-19 19:09:00,66.9,-6.2,29.80,SSE,157,8.7,11.0,5,0.00,,---,0.00,VWS V14.01,2013-03-20 02:09:00,
2013-03-19 19:15:00,66.7,-6.3,29.80,SSW,204,8.7,8.7,5,0.00,,---,0.00,VWS V14.01,2013-03-20 02:15:00,
2013-03-19 19:20:00,66.6,-6.5,29.80,SE,142,8.7,8.7,5,0.00,,---,0.00,VWS V14.01,2013-03-20 02:20:00,
2013-03-19 19:25:00,66.4,-6.6,29.80,SSE,147,4.0,11.0,5,0.00,,---,0.00,VWS V14.01,2013-03-20 02:25:00,
2013-03-19 19:31:00,66.2,-6.7,29.80,SE,125,5.4,9.6,5,0.00,,---,0.00,VWS V14.01,2013-03-20 02:31:00,
2013-03-19 19:36:00,66.0,-6.9,29.80,SSE,151,10.5,10.5,5,0.00,,---,0.00,VWS V14.01,2013-03-20 02:36:00,
2013-03-19 19:41:00,66.0,-6.9,29.80,SSE,147,14.5,14.5,5,0.00,,---,0.00,VWS V14.01,2013-03-20 02:41:00,
2013-03-19 19:47:00,66.0,-6.9,29.80,SSE,160,8.7,8.7,5,0.00,,---,0.00,VWS V14.01,2013-03-20 02:47:00,
2013-03-19 19:52:00,65.7,-7.1,29.80,SSE,161,6.3,6.3,5,0.00,,---,0.00,VWS V14.01,2013-03-20 02:52:00,
2013-03-19 19:57:00,65.7,-7.1,29.80,SSW,198,3.6,8.7,5,0.00,,---,0.00,VWS V14.01,2013-03-20 02:57:00,
2013-03-19 20:02:00,65.7,-7.1,29.80,SW,227,4.9,4.9,5,0.00,,---,0.00,VWS V14.01,2013-03-20 03:02:00,
2013-03-19 20:07:00,65.7,-7.1,29.80,South,178,4.5,7.6,5,0.00,,---,0.00,VWS V14.01,2013-03-20 03:07:00,
2013-03-19 20:12:00,65.7,-7.1,29.83,SSW,204,2.2,4.9,5,0.00,,---,0.00,VWS V14.01,2013-03-20 03:12:00,
2013-03-19 20:17:00,65.3,-7.4,29.83,SW,231,0.0,0.0,5,0.00,,---,0.00,VWS V14.01,2013-03-20 03:17:00,
2013-03-19 20:22:00,65.3,-7.4,29.83,WSW,245,0.0,5.8,5,0.00,,---,0.00,VWS V14.01,2013-03-20 03:22:00,
2013-03-19 20:27:00,65.3,-7.4,29.83,SSE,161,0.0,0.0,5,0.00,,---,0.00,VWS V14.01,2013-03-20 03:27:00,
2013-03-19 20:32:00,64.2,-4.4,29.83,ENE,63,8.1,11.0,6,0.00,,---,0.00,VWS V14.01,2013-03-20 03:32:00,
2013-03-19 20:38:00,63.5,-4.9,29.83,SE,128,8.1,11.0,6,0.00,,---,0.00,VWS V14.01,2013-03-20 03:38:00,
2013-03-19 20:43:00,63.3,-5.0,29.83,SE,137,4.0,6.3,6,0.00,,---,0.00,VWS V14.01,2013-03-20 03:43:00,
2013-03-19 20:48:00,63.3,-5.0,29.83,East,89,5.8,5.8,6,0.00,,---,0.00,VWS V14.01,2013-03-20 03:48:00,
2013-03-19 20:53:00,63.3,-5.0,29.83,SSE,149,0.0,0.0,6,0.00,,---,0.00,VWS V14.01,2013-03-20 03:53:00,
2013-03-19 20:58:00,63.5,-4.9,29.83,SSE,154,0.0,0.0,6,0.00,,---,0.00,VWS V14.01,2013-03-20 03:58:00,
2013-03-19 21:00:00,63.3,-5.0,29.83,SE,133,0.0,4.9,6,0.00,,---,0.00,VWS V14.01,2013-03-20 04:00:00,
2013-03-19 21:01:00,63.3,-5.0,29.83,SE,138,0.0,0.0,6,0.00,,---,0.00,VWS V14.01,2013-03-20 04:01:00,
2013-03-19 21:02:00,63.3,-5.0,29.83,SE,141,0.0,0.0,6,0.00,,---,0.00,VWS V14.01,2013-03-20 04:02:00,
2013-03-19 21:07:00,63.1,-5.2,29.83,SSW,213,3.1,4.0,6,0.00,,---,0.00,VWS V14.01,2013-03-20 04:07:00,
2013-03-19 21:12:00,63.0,-5.3,29.83,SW,225,0.0,0.0,6,0.00,,---,0.00,VWS V14.01,2013-03-20 04:12:00,
2013-03-19 21:17:00,62.2,-5.8,29.83,WSW,240,0.0,0.0,6,0.00,,---,0.00,VWS V14.01,2013-03-20 04:17:00,
2013-03-19 21:22:00,61.5,-6.3,29.83,SW,234,0.0,0.0,6,0.00,,---,0.00,VWS V14.01,2013-03-20 04:22:00,
2013-03-19 21:28:00,61.2,-6.6,29.83,SW,234,0.0,0.0,6,0.00,,---,0.00,VWS V14.01,2013-03-20 04:28:00,
2013-03-19 21:33:00,60.4,-4.0,29.83,NW,315,0.0,0.0,7,0.00,,---,0.00,VWS V14.01,2013-03-20 04:33:00,
2013-03-19 21:38:00,59.4,-4.8,29.83,NW,316,0.0,0.0,7,0.00,,---,0.00,VWS V14.01,2013-03-20 04:38:00,
2013-03-19 21:43:00,59.0,-5.0,29.83,NW,315,0.0,0.0,7,0.00,,---,0.00,VWS V14.01,2013-03-20 04:43:00,
2013-03-19 21:49:00,58.8,-5.2,29.86,West,263,0.0,0.0,7,0.00,,---,0.00,VWS V14.01,2013-03-20 04:49:00,
2013-03-19 21:54:00,58.6,-5.3,29.86,SSW,203,0.0,0.0,7,0.00,,---,0.00,VWS V14.01,2013-03-20 04:54:00,
2013-03-19 21:59:00,58.5,-5.4,29.86,SSW,203,0.0,0.0,7,0.00,,---,0.00,VWS V14.01,2013-03-20 04:59:00,
2013-03-19 22:04:00,58.5,-5.4,29.86,SSW,203,0.0,0.0,7,0.00,,---,0.00,VWS V14.01,2013-03-20 05:04:00,
2013-03-19 22:10:00,58.1,-5.7,29.89,SW,221,0.0,0.0,7,0.00,,---,0.00,VWS V14.01,2013-03-20 05:10:00,
2013-03-19 22:15:00,58.1,-5.7,29.89,SSW,212,0.0,0.0,7,0.00,,---,0.00,VWS V14.01,2013-03-20 05:15:00,
2013-03-19 22:20:00,57.9,-5.8,29.89,SSW,212,0.0,0.0,7,0.00,,---,0.00,VWS V14.01,2013-03-20 05:20:00,
2013-03-19 22:25:00,57.7,-5.9,29.89,SSW,212,0.0,0.0,7,0.00,,---,0.00,VWS V14.01,2013-03-20 05:25:00,
2013-03-19 22:30:00,57.6,-6.1,29.89,SW,222,0.0,0.0,7,0.00,,---,0.00,VWS V14.01,2013-03-20 05:30:00,
2013-03-19 22:35:00,57.4,-6.2,29.89,SW,216,0.0,0.0,7,0.00,,---,0.00,VWS V14.01,2013-03-20 05:35:00,
2013-03-19 22:40:00,56.8,-6.6,29.89,SW,226,0.0,0.0,7,0.00,,---,0.00,VWS V14.01,2013-03-20 05:40:00,
2013-03-19 22:46:00,56.7,-6.8,29.89,SW,231,0.0,0.0,7,0.00,,---,0.00,VWS V14.01,2013-03-20 05:46:00,
2013-03-19 22:51:00,56.5,-6.9,29.89,WSW,239,0.0,0.0,7,0.00,,---,0.00,VWS V14.01,2013-03-20 05:51:00,
2013-03-19 22:56:00,56.1,-7.2,29.89,WSW,245,0.0,0.0,7,0.00,,---,0.00,VWS V14.01,2013-03-20 05:56:00,
2013-03-19 23:01:00,55.9,-7.3,29.89,WSW,245,0.0,0.0,7,0.00,,---,0.00,VWS V14.01,2013-03-20 06:01:00,
2013-03-19 23:07:00,56.5,-6.9,29.89,WSW,245,0.0,0.0,7,0.00,,---,0.00,VWS V14.01,2013-03-20 06:07:00,
2013-03-19 23:12:00,56.1,-7.2,29.89,WSW,245,0.0,0.0,7,0.00,,---,0.00,VWS V14.01,2013-03-20 06:12:00,
2013-03-19 23:17:00,55.9,-7.3,29.89,WSW,245,0.0,0.0,7,0.00,,---,0.00,VWS V14.01,2013-03-20 06:17:00,
2013-03-19 23:22:00,55.9,-7.3,29.89,SW,220,0.0,0.0,7,0.00,,---,0.00,VWS V14.01,2013-03-20 06:22:00,
2013-03-19 23:27:00,55.4,-7.7,29.89,SW,216,0.0,0.0,7,0.00,,---,0.00,VWS V14.01,2013-03-20 06:27:00,
2013-03-19 23:33:00,55.2,-5.1,29.89,SW,216,0.0,0.0,8,0.00,,---,0.00,VWS V14.01,2013-03-20 06:33:00,
2013-03-19 23:38:00,55.2,-5.1,29.89,SW,216,0.0,0.0,8,0.00,,---,0.00,VWS V14.01,2013-03-20 06:38:00,
2013-03-19 23:43:00,55.2,-5.1,29.89,SW,216,0.0,0.0,8,0.00,,---,0.00,VWS V14.01,2013-03-20 06:43:00,
2013-03-19 23:48:00,54.7,-5.5,29.89,SW,216,0.0,0.0,8,0.00,,---,0.00,VWS V14.01,2013-03-20 06:48:00,
2013-03-19 23:53:00,54.3,-5.8,29.89,SW,216,0.0,0.0,8,0.00,,---,0.00,VWS V14.01,2013-03-20 06:53:00,
2013-03-19 23:58:00,54.3,-5.8,29.89,SW,216,0.0,0.0,8,0.00,,---,0.00,VWS V14.01,2013-03-20 06:58:00,